Regional Weather Roundup
Issued by NWS Charleston, SC

Current Version | Previous Version | Graphics & Text | Print | Product List | Glossary On
Versions: 1 2 3 4 5 6 7 8 9 10 11 12 13 14 15 16 17 18 19 20 21 22 23 24 25 26 27 28 29 30 31 32 33 34 35 36 37 38 39 40 41 42 43 44 45 46 47 48 49 50
000
ASUS42 KCHS 232126
RWRCHS

REGIONAL WEATHER ROUNDUP
NATIONAL WEATHER SERVICE CHARLESTON SC
400 PM EST THU FEB 23 2017

NOTE: "FAIR" INDICATES FEW OR NO CLOUDS BELOW 12,000 FEET WITH NO
SIGNIFICANT WEATHER AND/OR OBSTRUCTIONS TO VISIBILITY.

NOT ALL STATIONS ARE QUALITY CONTROLLED. USE DATA WITH CAUTION...
ESPECIALLY DEWPOINT OBSERVATIONS.

SCZ027-030-031-034>040-042>050-232200-
...SOUTHEAST SOUTH CAROLINA...

CITY           SKY/WX    TMP DP  RH WIND       PRES   REMARKS
N CHARLESTON   PTSUNNY   75  57  53 E16G24    29.81S
WATERFRONT PRK   N/A     71  62  73 E17       29.80S
MOUNT PLEASANT FAIR      72  63  73 E9        29.82S
JOHNS ISLAND   MOCLDY    72  63  73 NE14      29.82S
PINOPOLIS        N/A     72  59  64 E12       29.74F
MONCKS CORNER  MOCLDY    73  54  49 E8        29.82S
SUMMERVILLE    MOCLDY    73  55  53 E6        29.82S
BEAUFORT MCAS  PTSUNNY   75  62  64 E12       29.80S
BEAUFORT ARPT  FAIR      72  61  68 E13       29.80S
HILTON HEAD IS MOSUNNY   72  63  73 NE12G21   29.81S
WALTERBORO     MOCLDY    72  57  60 E8G17     29.82R
ALLENDALE      FAIR      77  55  47 VRB3      29.79S

...SOUTHERN MIDLANDS AND PEE DEE...

CITY           SKY/WX    TMP DP  RH WIND       PRES   REMARKS
GEORGETOWN     FAIR      68  57  68 E8G17     29.85S
KINGSTREE      MOCLDY    72  55  56 E13       29.83S
ORANGEBURG     PTSUNNY   77  53  43 NE7       29.81F
BARNWELL       FAIR      79  55  44 NE7       29.81S
AIKEN          CLOUDY    72  50  46 NE5       29.85S
MANNING        FAIR     N/A N/A N/A MISG      29.82S
COLUMBIA       MOSUNNY   78  51  38 SE8       29.81F
SUMTER         MOSUNNY   76  53  43 NE8       29.80F
FLORENCE       CLOUDY    76  56  49 SE9       29.84S
MYRTLE BEACH   PTSUNNY   70  61  73 E12       29.87F
N MYRTLE BEACH CLOUDY    68  60  75 E7        29.85F

$$

GAZ063-065-086>088-099>101-113>116-118-119-134>141-150-232200-
...SOUTHEAST GEORGIA...

CITY           SKY/WX    TMP DP  RH WIND       PRES   REMARKS
SAVANNAH ARPT  PTSUNNY   74  58  57 E16       29.80S
HUNTER AAF     MOSUNNY   73  64  73 E18       29.77S
FORT STEWART   PTSUNNY   70  63  78 E7        29.77S
STATESBORO     PTSUNNY   74  61  63 E5        29.79S
SYLVANIA       PTCLDY   N/A N/A N/A E10       29.80S
CLAXTON        CLOUDY   N/A N/A N/A NE7       29.79S

...CSRA...CENTRAL AND FAR SOUTHEAST GEORGIA...

CITY           SKY/WX    TMP DP  RH WIND       PRES   REMARKS
THOMSON        SUNNY     78  55  44 E7        29.86S
AUGUSTA-BUSH   MOSUNNY   79  53  40 E6        29.80F
AUGUSTA-DANIEL MOSUNNY   77  50  38 E8        29.82F
SWAINSBORO     FAIR      77  55  47 E10       29.80S
VIDALIA        PTSUNNY   77  63  61 E9        29.79S
EASTMAN        MOCLDY    77  42  27 CALM      29.82R
HAZLEHURST     MOCLDY    78  62  58 E7        29.77S
ALMA           MOSUNNY   75  59  57 E9G17     29.76F
WAYCROSS       SUNNY     80  65  61 E16       29.76R
JESUP          FAIR      73  63  68 E12G20    29.78S
BAXLEY         PTSUNNY   75  63  64 E8G20     29.77R
BRUNSWICK      PTSUNNY   73  64  73 NE16      29.77F
SAINT SIMONS   MOSUNNY   72  61  68 NE17G28   29.76S

$$

SCZ027-028-034-036>038-045-046-048>050-GAZ119-141-232200-
...LAKE AND SUPPLEMENTAL COASTAL OBSERVATIONS...

STATION/POSITION TIME  TEMP    WIND        PRES    WAVE   SWELL
                       AIR SEA DIR/SP/G            HT/PER HT/PER/DIR
                 (UTC) (F)     (DEG/KT/KT) (MB)    (FT/S) (FT/S/D)
WINYAH BAY       2045   66      50/ 11     1010.0F
LAKE MURRAY      2050   74     100/  3/  5 1009.5F
ACE BASIN NERRS  2045   73      70/  5     1009.0S
FORT PULASKI     2100   66 62   70/ 14/ 19 1009.4
SAPELO ISLAND    2100   72      40/ 13     1008.0

$$

ANZ835-935-AMZ111-154-330-350-352-354-370-450-454-472-232200-
...C-MAN AND BUOY OBSERVATIONS...

STATION/POSITION TIME  TEMP    WIND        PRES    WAVE   SWELL
                       AIR SEA DIR/SP/G            HT/PER HT/PER/DIR
                 (UTC) (F)     (DEG/KT/KT) (MB)    (FT/S) (FT/S/D)
BUOY 41004       2050   70 70   80/ 14/ 16 1008.4S   9/ 8   8/140/ 8
BUOY 41008       2050   64 63   40/ 16/ 17 1007.1F   7/ 9   5/140/ 9
FOLLY BEACH CMAN 2100   64      50/ 16/ 17 1010.3S
CAPERS NEARSHORE 2008   63 60   50/ 14/ 17 1009.5F
FRIPP NEARSHORE  2108   63 61   50/ 12/ 16 1009.0S


STATION/POSITION TIME  TEMP    WIND        PRES    WAVE   SWELL
                       AIR SEA DIR/SP/G            HT/PER HT/PER/DIR
                 (UTC) (F)     (DEG/KT/KT) (MB)    (FT/S) (FT/S/D)
5E ST. MARYS GA  2100      64                N/A     8/ 9   2/100/11
FRYING PAN BUOY  2110   71 70   90/ 14/ 17 1010.3
BUOY 41025       2050   70 73  150/ 12/ 14 1012.6R   4/ 5   3/150/ 6
CAPE LOOKOUT NC  2100   65     100/ 11/ 12 1011.7F
BUOY 41002       2050   69 70  100/ 21/ 27 1010.1S   9/ 8   3/ 60/11
BUOY 41010       NOT AVBL
ST AUGUSTINE FL  2100   66 67  360/ 21/ 23 1006.1R


$$




USA.gov is the U.S. government's official web portal to all federal, state and local government web resources and services.